Location: Hylvaty SDH
(49.9612°N, 16.4057°E)
Time: 12:44:19
(UTC+01:00)

A-11 Canister half - Pass Details

Date: 06 October 2020
Orbit: 1526 x 1683 km, 47.3° (Epoch: 28 October)

Event Time Altitude Azimuth Distance (km) Brightness Sun altitude
Rises 00:34:00 0° 268° (W) 4,677 11.6 -45.2°
Enters shadow 00:34:53 - 268° (W) 4,388 11.4 -45.2°
Reaches altitude 10° 00:37:01 10° 267° (W) 3,699 - -45.2°
Maximum altitude 00:46:19 77° 184° (S) 1,589 - -45.2°
Drops below altitude 10° 00:55:52 10° 100° (E) 3,788 - -45.1°
Exits shadow 00:58:49 - 100° (E) 4,734 11.5 -45.1°
Sets 00:59:00 0° 100° (E) 4,793 11.6 -45.1°
